| time (UTC) | temp F | wind direction | speed MPH | gust MPH | rain 1hr in | rain 24hr in | rain mn in | humidity % | barometer mb |
| 20260506012507 | 95 | 190 | 1.0 | 4.0 | 0.00 | 0.00 | 0.00 | 25 | 1006.2 |
| 20260506012107 | 95 | 190 | 0.0 | 5.0 | 0.00 | 0.00 | 0.00 | 24 | 1006.2 |
| 20260506011606 | 96 | 0 | 3.0 | 9.0 | 0.00 | 0.00 | 0.00 | 24 | 1006.0 |
| 20260506011511 | 96 | 190 | 2.0 | 9.0 | 0.00 | 0.00 | 0.00 | 24 | 1006.1 |
| 20260506011006 | 96 | 190 | 1.0 | 9.0 | 0.00 | 0.00 | 0.00 | 24 | 1006.0 |
| 20260506010506 | 96 | 190 | 2.0 | 8.0 | 0.00 | 0.00 | 0.00 | 24 | 1006.0 |
| 20260506010100 | 97 | 190 | 2.0 | 9.0 | 0.00 | 0.00 | 0.00 | 23 | 1005.9 |
| 20260506010017 | 96 | 190 | 2.0 | 9.0 | 0.00 | 0.00 | 0.00 | 24 | 1005.9 |
| 20260506005506 | 97 | 190 | 4.0 | 9.0 | 0.00 | 0.00 | 0.00 | 23 | 1005.8 |
| 20260506005006 | 97 | 190 | 3.0 | 10.0 | 0.00 | 0.00 | 0.00 | 23 | 1005.8 |
| 20260506004604 | 98 | 190 | 4.0 | 10.0 | 0.00 | 0.00 | 0.00 | 23 | 1005.6 |
| 20260506004506 | 98 | 190 | 4.0 | 10.0 | 0.00 | 0.00 | 0.00 | 23 | 1005.7 |
| 20260506004005 | 98 | 190 | 1.0 | 10.0 | 0.00 | 0.00 | 0.00 | 23 | 1005.6 |
| 20260506003505 | 98 | 190 | 2.0 | 7.0 | 0.00 | 0.00 | 0.00 | 23 | 1005.5 |
| 20260506003100 | 98 | 190 | 2.0 | 11.0 | 0.00 | 0.00 | 0.00 | 22 | 1005.3 |
| 20260506003005 | 98 | 190 | 1.0 | 11.0 | 0.00 | 0.00 | 0.00 | 23 | 1005.4 |
| 20260506002504 | 98 | 190 | 4.0 | 12.0 | 0.00 | 0.00 | 0.00 | 23 | 1005.3 |
| 20260506002004 | 99 | 190 | 5.0 | 12.0 | 0.00 | 0.00 | 0.00 | 22 | 1005.2 |
| 20260506001601 | 99 | 190 | 3.0 | 7.0 | 0.00 | 0.00 | 0.00 | 22 | 1005.1 |
| 20260506001504 | 99 | 190 | 2.0 | 7.0 | 0.00 | 0.00 | 0.00 | 23 | 1005.2 |
| 20260506001004 | 99 | 190 | 4.0 | 8.0 | 0.00 | 0.00 | 0.00 | 22 | 1005.1 |
| 20260506000505 | 99 | 190 | 2.0 | 8.0 | 0.00 | 0.00 | 0.00 | 23 | 1005.0 |
| 20260506000105 | 100 | 190 | 1.0 | 10.0 | 0.00 | 0.00 | 0.00 | 22 | 1004.9 |
| 20260506000005 | 100 | 190 | 1.0 | 10.0 | 0.00 | 0.00 | 0.00 | 22 | 1004.9 |
| 20260505235503 | 100 | 190 | 4.0 | 10.0 | 0.00 | 0.00 | 0.00 | 23 | 1004.9 |
| 20260505235003 | 100 | 190 | 5.0 | 10.0 | 0.00 | 0.00 | 0.00 | 22 | 1004.9 |
| 20260505234557 | 101 | 190 | 2.0 | 8.0 | 0.00 | 0.00 | 0.00 | 22 | 1004.9 |
| 20260505234503 | 100 | 190 | 2.0 | 8.0 | 0.00 | 0.00 | 0.00 | 23 | 1004.9 |
| 20260505234002 | 100 | 190 | 3.0 | 8.0 | 0.00 | 0.00 | 0.00 | 22 | 1004.9 |
| 20260505233501 | 101 | 190 | 0.0 | 7.0 | 0.00 | 0.00 | 0.00 | 22 | 1004.9 |
| 20260505233059 | 101 | 190 | 1.0 | 7.0 | 0.00 | 0.00 | 0.00 | 22 | 1004.9 |
| 20260505233005 | 101 | 190 | 0.0 | 7.0 | 0.00 | 0.00 | 0.00 | 22 | 1004.9 |
| 20260505232502 | 101 | 190 | 0.0 | 4.0 | 0.00 | 0.00 | 0.00 | 22 | 1005.0 |
| 20260505232103 | 101 | 190 | 0.0 | 7.0 | 0.00 | 0.00 | 0.00 | 22 | 1005.0 |
| 20260505231600 | 100 | 190 | 3.0 | 10.0 | 0.00 | 0.00 | 0.00 | 22 | 1005.0 |
| 20260505231558 | 100 | 190 | 2.0 | 10.0 | 0.00 | 0.00 | 0.00 | 22 | 1005.0 |
| 20260505231100 | 100 | 190 | 3.0 | 10.0 | 0.00 | 0.00 | 0.00 | 23 | 1005.1 |
| 20260505230559 | 100 | 190 | 4.0 | 8.0 | 0.00 | 0.00 | 0.00 | 23 | 1005.0 |
| 20260505230122 | 100 | 190 | 0.0 | 7.0 | 0.00 | 0.00 | 0.00 | 22 | 1005.2 |
| 20260505230100 | 100 | 190 | 2.0 | 8.0 | 0.00 | 0.00 | 0.00 | 23 | 1005.1 |
| 20260505225558 | 100 | 190 | 2.0 | 7.0 | 0.00 | 0.00 | 0.00 | 23 | 1005.2 |
| 20260505225057 | 101 | 190 | 2.0 | 8.0 | 0.00 | 0.00 | 0.00 | 22 | 1005.2 |
| 20260505224559 | 100 | 190 | 1.0 | 8.0 | 0.00 | 0.00 | 0.00 | 22 | 1005.3 |
| 20260505224056 | 100 | 190 | 2.0 | 15.0 | 0.00 | 0.00 | 0.00 | 22 | 1005.4 |
| 20260505223557 | 100 | 190 | 8.0 | 15.0 | 0.00 | 0.00 | 0.00 | 22 | 1005.4 |
| 20260505223057 | 100 | 190 | 2.0 | 7.0 | 0.00 | 0.00 | 0.00 | 23 | 1005.4 |
| 20260505222555 | 100 | 190 | 2.0 | 10.0 | 0.00 | 0.00 | 0.00 | 23 | 1005.5 |
| 20260505222055 | 100 | 190 | 6.0 | 10.0 | 0.00 | 0.00 | 0.00 | 23 | 1005.6 |
| 20260505221602 | 100 | 190 | 1.0 | 9.0 | 0.00 | 0.00 | 0.00 | 22 | 1005.6 |
| 20260505221555 | 100 | 190 | 4.0 | 8.0 | 0.00 | 0.00 | 0.00 | 23 | 1005.7 |
| 20260505221053 | 100 | 190 | 2.0 | 9.0 | 0.00 | 0.00 | 0.00 | 23 | 1005.8 |
| 20260505220552 | 100 | 190 | 1.0 | 14.0 | 0.00 | 0.00 | 0.00 | 23 | 1005.9 |
| 20260505220052 | 100 | 190 | 1.0 | 15.0 | 0.00 | 0.00 | 0.00 | 23 | 1006.0 |
| 20260505215653 | 100 | 190 | 5.0 | 15.0 | 0.00 | 0.00 | 0.00 | 23 | 1006.0 |
| 20260505215051 | 101 | 190 | 2.0 | 7.0 | 0.00 | 0.00 | 0.00 | 23 | 1006.0 |
| 20260505214605 | 101 | 190 | 2.0 | 7.0 | 0.00 | 0.00 | 0.00 | 22 | 1006.1 |
| 20260505214049 | 100 | 190 | 3.0 | 7.0 | 0.00 | 0.00 | 0.00 | 24 | 1006.2 |
| 20260505213547 | 100 | 190 | 1.0 | 4.0 | 0.00 | 0.00 | 0.00 | 24 | 1006.3 |
| 20260505213058 | 99 | 0 | 0.0 | 9.0 | 0.00 | 0.00 | 0.00 | 24 | 1006.4 |
| 20260505213047 | 99 | 190 | 0.0 | 9.0 | 0.00 | 0.00 | 0.00 | 24 | 1006.3 |
| 20260505212547 | 99 | 190 | 3.0 | 9.0 | 0.00 | 0.00 | 0.00 | 24 | 1006.7 |
| 20260505212044 | 99 | 190 | 1.0 | 9.0 | 0.00 | 0.00 | 0.00 | 24 | 1006.6 |
| 20260505211603 | 99 | 190 | 5.0 | 12.0 | 0.00 | 0.00 | 0.00 | 24 | 1006.6 |
| 20260505211546 | 99 | 190 | 4.0 | 12.0 | 0.00 | 0.00 | 0.00 | 24 | 1006.7 |
| 20260505211043 | 99 | 190 | 5.0 | 12.0 | 0.00 | 0.00 | 0.00 | 24 | 1006.8 |
| 20260505210543 | 99 | 190 | 7.0 | 12.0 | 0.00 | 0.00 | 0.00 | 24 | 1006.9 |
| 20260505210105 | 99 | 190 | 2.0 | 8.0 | 0.00 | 0.00 | 0.00 | 24 | 1006.8 |
| 20260505210043 | 99 | 190 | 1.0 | 8.0 | 0.00 | 0.00 | 0.00 | 24 | 1006.9 |
| 20260505205540 | 99 | 190 | 1.0 | 14.0 | 0.00 | 0.00 | 0.00 | 24 | 1007.1 |
| 20260505205039 | 99 | 190 | 5.0 | 14.0 | 0.00 | 0.00 | 0.00 | 24 | 1007.1 |
| 20260505204605 | 99 | 190 | 2.0 | 12.0 | 0.00 | 0.00 | 0.00 | 24 | 1007.1 |
| 20260505204538 | 99 | 190 | 3.0 | 8.0 | 0.00 | 0.00 | 0.00 | 24 | 1007.3 |
| 20260505204037 | 99 | 190 | 3.0 | 12.0 | 0.00 | 0.00 | 0.00 | 24 | 1007.3 |
| 20260505203536 | 99 | 190 | 5.0 | 12.0 | 0.00 | 0.00 | 0.00 | 24 | 1007.3 |
| 20260505203107 | 98 | 190 | 2.0 | 9.0 | 0.00 | 0.00 | 0.00 | 24 | 1007.3 |
| 20260505203038 | 98 | 190 | 2.0 | 7.0 | 0.00 | 0.00 | 0.00 | 24 | 1007.6 |
| 20260505202533 | 98 | 190 | 4.0 | 11.0 | 0.00 | 0.00 | 0.00 | 24 | 1007.8 |
| 20260505202033 | 98 | 190 | 4.0 | 11.0 | 0.00 | 0.00 | 0.00 | 24 | 1007.9 |
| 20260505201559 | 98 | 190 | 2.0 | 7.0 | 0.00 | 0.00 | 0.00 | 24 | 1007.7 |
| 20260505201542 | 98 | 190 | 2.0 | 9.0 | 0.00 | 0.00 | 0.00 | 24 | 1008.0 |
| 20260505201031 | 97 | 190 | 1.0 | 10.0 | 0.00 | 0.00 | 0.00 | 24 | 1008.0 |
| 20260505200530 | 98 | 190 | 3.0 | 10.0 | 0.00 | 0.00 | 0.00 | 24 | 1008.2 |
| 20260505200110 | 98 | 190 | 4.0 | 10.0 | 0.00 | 0.00 | 0.00 | 23 | 1008.1 |
| 20260505200032 | 98 | 190 | 5.0 | 10.0 | 0.00 | 0.00 | 0.00 | 24 | 1008.3 |
| 20260505195527 | 98 | 190 | 0.0 | 5.0 | 0.00 | 0.00 | 0.00 | 24 | 1008.3 |
| 20260505195027 | 97 | 190 | 1.0 | 8.0 | 0.00 | 0.00 | 0.00 | 24 | 1008.5 |
| 20260505194558 | 97 | 190 | 3.0 | 14.0 | 0.00 | 0.00 | 0.00 | 24 | 1008.6 |
| 20260505194526 | 97 | 190 | 3.0 | 14.0 | 0.00 | 0.00 | 0.00 | 24 | 1008.7 |
| 20260505194025 | 97 | 190 | 3.0 | 9.0 | 0.00 | 0.00 | 0.00 | 25 | 1008.8 |
| 20260505193523 | 96 | 190 | 4.0 | 9.0 | 0.00 | 0.00 | 0.00 | 25 | 1008.9 |
| 20260505193104 | 96 | 190 | 4.0 | 11.0 | 0.00 | 0.00 | 0.00 | 25 | 1008.9 |
| 20260505193022 | 96 | 190 | 4.0 | 10.0 | 0.00 | 0.00 | 0.00 | 25 | 1009.1 |
| 20260505192525 | 96 | 190 | 2.0 | 12.0 | 0.00 | 0.00 | 0.00 | 26 | 1009.2 |
| 20260505192021 | 96 | 190 | 4.0 | 12.0 | 0.00 | 0.00 | 0.00 | 26 | 1009.2 |
| 20260505191608 | 96 | 190 | 3.0 | 12.0 | 0.00 | 0.00 | 0.00 | 26 | 1009.2 |
| 20260505191520 | 96 | 190 | 3.0 | 12.0 | 0.00 | 0.00 | 0.00 | 26 | 1009.4 |
| 20260505191019 | 97 | 190 | 6.0 | 12.0 | 0.00 | 0.00 | 0.00 | 26 | 1009.5 |
| 20260505190522 | 96 | 190 | 1.0 | 5.0 | 0.00 | 0.00 | 0.00 | 27 | 1009.6 |
| 20260505190058 | 95 | 0 | 1.0 | 10.0 | 0.00 | 0.00 | 0.00 | 27 | 1009.4 |
| 20260505190026 | 95 | 190 | 0.0 | 5.0 | 0.00 | 0.00 | 0.00 | 27 | 1009.6 |
| 20260505185516 | 95 | 190 | 1.0 | 10.0 | 0.00 | 0.00 | 0.00 | 27 | 1009.8 |
| 20260505185015 | 95 | 190 | 4.0 | 12.0 | 0.00 | 0.00 | 0.00 | 27 | 1009.9 |
| 20260505184559 | 95 | 190 | 3.0 | 10.0 | 0.00 | 0.00 | 0.00 | 27 | 1009.8 |
| 20260505184514 | 95 | 190 | 4.0 | 10.0 | 0.00 | 0.00 | 0.00 | 27 | 1010.1 |
| 20260505184013 | 95 | 190 | 4.0 | 10.0 | 0.00 | 0.00 | 0.00 | 27 | 1010.2 |
| 20260505183511 | 95 | 190 | 4.0 | 11.0 | 0.00 | 0.00 | 0.00 | 28 | 1010.3 |
| 20260505183057 | 95 | 190 | 4.0 | 11.0 | 0.00 | 0.00 | 0.00 | 28 | 1010.1 |
| 20260505183010 | 95 | 190 | 3.0 | 11.0 | 0.00 | 0.00 | 0.00 | 28 | 1010.5 |
| 20260505182511 | 94 | 190 | 1.0 | 10.0 | 0.00 | 0.00 | 0.00 | 29 | 1010.5 |
| 20260505182009 | 93 | 190 | 1.0 | 11.0 | 0.00 | 0.00 | 0.00 | 29 | 1010.7 |
| 20260505181559 | 93 | 190 | 4.0 | 11.0 | 0.00 | 0.00 | 0.00 | 29 | 1010.5 |
| 20260505181509 | 93 | 190 | 2.0 | 11.0 | 0.00 | 0.00 | 0.00 | 29 | 1010.8 |
| 20260505181009 | 94 | 190 | 5.0 | 10.0 | 0.00 | 0.00 | 0.00 | 29 | 1010.9 |
| 20260505180508 | 94 | 190 | 1.0 | 5.0 | 0.00 | 0.00 | 0.00 | 29 | 1011.0 |
| 20260505180057 | 93 | 190 | 0.0 | 7.0 | 0.00 | 0.00 | 0.00 | 30 | 1010.7 |
| 20260505180006 | 93 | 190 | 0.0 | 7.0 | 0.00 | 0.00 | 0.00 | 31 | 1011.1 |
| 20260505175505 | 92 | 190 | 2.0 | 7.0 | 0.00 | 0.00 | 0.00 | 31 | 1011.1 |
| 20260505175011 | 92 | 190 | 2.0 | 7.0 | 0.00 | 0.00 | 0.00 | 30 | 1011.3 |
| 20260505174606 | 92 | 0 | 2.0 | 8.0 | 0.00 | 0.00 | 0.00 | 30 | 1010.9 |
| 20260505174506 | 92 | 190 | 2.0 | 8.0 | 0.00 | 0.00 | 0.00 | 30 | 1011.3 |
| 20260505174007 | 93 | 190 | 3.0 | 8.0 | 0.00 | 0.00 | 0.00 | 30 | 1011.5 |
| 20260505173503 | 92 | 190 | 2.0 | 9.0 | 0.00 | 0.00 | 0.00 | 30 | 1011.5 |
| 20260505173058 | 92 | 190 | 4.0 | 9.0 | 0.00 | 0.00 | 0.00 | 31 | 1011.1 |
| 20260505173001 | 91 | 190 | 3.0 | 9.0 | 0.00 | 0.00 | 0.00 | 31 | 1011.5 |
| 20260505172501 | 91 | 190 | 0.0 | 9.0 | 0.00 | 0.00 | 0.00 | 32 | 1011.7 |
| 20260505172001 | 91 | 190 | 2.0 | 9.0 | 0.00 | 0.00 | 0.00 | 32 | 1011.8 |
| 20260505171603 | 91 | 190 | 1.0 | 7.0 | 0.00 | 0.00 | 0.00 | 33 | 1011.9 |
| 20260505171557 | 91 | 190 | 0.0 | 9.0 | 0.00 | 0.00 | 0.00 | 32 | 1011.3 |
| 20260505171059 | 91 | 190 | 3.0 | 9.0 | 0.00 | 0.00 | 0.00 | 33 | 1011.9 |
| 20260505170558 | 91 | 190 | 1.0 | 9.0 | 0.00 | 0.00 | 0.00 | 34 | 1012.0 |
| 20260505170058 | 90 | 190 | 2.0 | 8.0 | 0.00 | 0.00 | 0.00 | 34 | 1012.1 |
| 20260505165558 | 90 | 190 | 0.0 | 7.0 | 0.00 | 0.00 | 0.00 | 35 | 1012.2 |
| 20260505165056 | 89 | 190 | 2.0 | 9.0 | 0.00 | 0.00 | 0.00 | 35 | 1012.3 |
| 20260505164601 | 89 | 190 | 3.0 | 7.0 | 0.00 | 0.00 | 0.00 | 35 | 1012.0 |
| 20260505164555 | 89 | 190 | 3.0 | 7.0 | 0.00 | 0.00 | 0.00 | 35 | 1012.4 |
| 20260505164053 | 89 | 190 | 0.0 | 7.0 | 0.00 | 0.00 | 0.00 | 36 | 1012.5 |
| 20260505163552 | 89 | 190 | 2.0 | 7.0 | 0.00 | 0.00 | 0.00 | 37 | 1012.5 |
| 20260505163103 | 88 | 0 | 2.0 | 5.0 | 0.00 | 0.00 | 0.00 | 37 | 1012.2 |
| 20260505163051 | 88 | 190 | 0.0 | 5.0 | 0.00 | 0.00 | 0.00 | 37 | 1012.6 |
| 20260505162551 | 89 | 190 | 1.0 | 5.0 | 0.00 | 0.00 | 0.00 | 37 | 1012.7 |
| 20260505162050 | 88 | 190 | 0.0 | 7.0 | 0.00 | 0.00 | 0.00 | 38 | 1012.8 |
| 20260505161609 | 87 | 190 | 1.0 | 5.0 | 0.00 | 0.00 | 0.00 | 39 | 1012.5 |
| 20260505161605 | 87 | 190 | 1.0 | 7.0 | 0.00 | 0.00 | 0.00 | 39 | 1012.8 |
| 20260505161048 | 87 | 190 | 1.0 | 5.0 | 0.00 | 0.00 | 0.00 | 40 | 1012.9 |
| 20260505160548 | 87 | 190 | 1.0 | 5.0 | 0.00 | 0.00 | 0.00 | 40 | 1012.9 |
| 20260505153058 | 85 | 0 | 3.0 | 5.0 | 0.00 | 0.00 | 0.00 | 42 | 1012.6 |
| 20260505153041 | 85 | 190 | 2.0 | 5.0 | 0.00 | 0.00 | 0.00 | 43 | 1013.0 |
| 20260505152540 | 84 | 190 | 0.0 | 5.0 | 0.00 | 0.00 | 0.00 | 44 | 1013.1 |
| 20260505152038 | 84 | 190 | 2.0 | 4.0 | 0.00 | 0.00 | 0.00 | 44 | 1013.2 |
| 20260505151558 | 84 | 0 | 0.0 | 5.0 | 0.00 | 0.00 | 0.00 | 45 | 1012.9 |
| 20260505151538 | 84 | 190 | 0.0 | 5.0 | 0.00 | 0.00 | 0.00 | 45 | 1013.3 |
| 20260505151037 | 84 | 190 | 1.0 | 5.0 | 0.00 | 0.00 | 0.00 | 46 | 1013.3 |
| 20260505150537 | 83 | 190 | 1.0 | 4.0 | 0.00 | 0.00 | 0.00 | 46 | 1013.4 |
| 20260505150107 | 83 | 0 | 0.0 | 3.0 | 0.00 | 0.00 | 0.00 | 46 | 1012.9 |
| 20260505140530 | 77 | 190 | 0.0 | 0.0 | 0.00 | 0.00 | 0.00 | 54 | 1013.3 |
| 20260505130111 | 73 | 0 | 0.0 | 0.0 | 0.00 | 0.00 | 0.00 | 59 | 1012.2 |
| 20260505125023 | 72 | 190 | 0.0 | 0.0 | 0.00 | 0.00 | 0.00 | 59 | 1012.7 |
| 20260505124601 | 72 | 0 | 0.0 | 0.0 | 0.00 | 0.00 | 0.00 | 59 | 1012.0 |
| 20260505124522 | 72 | 190 | 0.0 | 0.0 | 0.00 | 0.00 | 0.00 | 60 | 1012.6 |
| 20260505124021 | 72 | 190 | 0.0 | 0.0 | 0.00 | 0.00 | 0.00 | 60 | 1012.5 |
| 20260505123519 | 72 | 190 | 0.0 | 0.0 | 0.00 | 0.00 | 0.00 | 60 | 1012.5 |
| 20260505123102 | 72 | 0 | 0.0 | 0.0 | 0.00 | 0.00 | 0.00 | 60 | 1011.9 |
| 20260505123019 | 72 | 190 | 0.0 | 0.0 | 0.00 | 0.00 | 0.00 | 60 | 1012.4 |
| 20260505122518 | 72 | 190 | 0.0 | 0.0 | 0.00 | 0.00 | 0.00 | 60 | 1012.3 |
| 20260505122017 | 72 | 190 | 0.0 | 0.0 | 0.00 | 0.00 | 0.00 | 60 | 1012.2 |
| 20260505121559 | 72 | 0 | 0.0 | 0.0 | 0.00 | 0.00 | 0.00 | 59 | 1011.6 |
| 20260505121518 | 72 | 190 | 0.0 | 0.0 | 0.00 | 0.00 | 0.00 | 59 | 1012.2 |
| 20260505121015 | 72 | 190 | 0.0 | 0.0 | 0.00 | 0.00 | 0.00 | 59 | 1012.1 |
| 20260505120515 | 72 | 190 | 0.0 | 0.0 | 0.00 | 0.00 | 0.00 | 59 | 1012.0 |
| 20260505120104 | 72 | 0 | 0.0 | 2.0 | 0.00 | 0.00 | 0.00 | 58 | 1011.4 |
| 20260505120042 | 72 | 190 | 0.0 | 0.0 | 0.00 | 0.00 | 0.00 | 59 | 1012.0 |
| 20260505115516 | 72 | 190 | 0.0 | 2.0 | 0.00 | 0.00 | 0.00 | 59 | 1011.9 |
| 20260505115012 | 72 | 190 | 0.0 | 2.0 | 0.00 | 0.00 | 0.00 | 58 | 1011.8 |
| 20260505114558 | 73 | 0 | 0.0 | 2.0 | 0.00 | 0.00 | 0.00 | 58 | 1011.2 |
| 20260505114512 | 73 | 190 | 0.0 | 2.0 | 0.00 | 0.00 | 0.00 | 58 | 1011.8 |
| 20260505114010 | 73 | 190 | 0.0 | 0.0 | 0.00 | 0.00 | 0.00 | 58 | 1011.7 |
| 20260505113508 | 73 | 190 | 0.0 | 2.0 | 0.00 | 0.00 | 0.00 | 58 | 1011.6 |
| 20260505113115 | 73 | 0 | 0.0 | 2.0 | 0.00 | 0.00 | 0.00 | 57 | 1011.1 |
| 20260505113007 | 73 | 190 | 0.0 | 2.0 | 0.00 | 0.00 | 0.00 | 58 | 1011.5 |
| 20260505112506 | 73 | 190 | 0.0 | 2.0 | 0.00 | 0.00 | 0.00 | 57 | 1011.4 |
| 20260505112005 | 73 | 190 | 0.0 | 2.0 | 0.00 | 0.00 | 0.00 | 57 | 1011.3 |
| 20260505111555 | 73 | 190 | 0.0 | 2.0 | 0.00 | 0.00 | 0.00 | 56 | 1010.9 |
| 20260505111506 | 73 | 190 | 0.0 | 2.0 | 0.00 | 0.00 | 0.00 | 57 | 1011.2 |
| 20260505111008 | 73 | 190 | 0.0 | 0.0 | 0.00 | 0.00 | 0.00 | 57 | 1011.3 |
| 20260505110502 | 73 | 190 | 0.0 | 0.0 | 0.00 | 0.00 | 0.00 | 57 | 1011.1 |
| 20260505110118 | 74 | 0 | 0.0 | 0.0 | 0.00 | 0.00 | 0.00 | 56 | 1010.8 |
| 20260505102056 | 75 | 190 | 0.0 | 0.0 | 0.00 | 0.00 | 0.00 | 55 | 1010.9 |
| 20260505101600 | 75 | 0 | 0.0 | 0.0 | 0.00 | 0.00 | 0.00 | 55 | 1010.3 |
| 20260505101556 | 75 | 190 | 0.0 | 0.0 | 0.00 | 0.00 | 0.00 | 55 | 1010.8 |
| 20260505101054 | 75 | 190 | 0.0 | 0.0 | 0.00 | 0.00 | 0.00 | 56 | 1010.8 |
| 20260505100552 | 75 | 190 | 0.0 | 0.0 | 0.00 | 0.00 | 0.00 | 55 | 1010.8 |
| 20260505100057 | 75 | 0 | 0.0 | 0.0 | 0.00 | 0.00 | 0.00 | 54 | 1010.3 |
| 20260505100053 | 75 | 190 | 0.0 | 0.0 | 0.00 | 0.00 | 0.00 | 54 | 1010.8 |
| 20260505095552 | 75 | 190 | 0.0 | 0.0 | 0.00 | 0.00 | 0.00 | 54 | 1010.7 |
| 20260505095051 | 76 | 190 | 0.0 | 0.0 | 0.00 | 0.00 | 0.00 | 53 | 1010.7 |
| 20260505094616 | 76 | 0 | 0.0 | 0.0 | 0.00 | 0.00 | 0.00 | 53 | 1010.3 |
| 20260505094551 | 76 | 190 | 0.0 | 0.0 | 0.00 | 0.00 | 0.00 | 53 | 1010.8 |
| 20260505094034 | 76 | 190 | 0.0 | 0.0 | 0.00 | 0.00 | 0.00 | 53 | 1010.8 |
| 20260505093532 | 76 | 190 | 0.0 | 0.0 | 0.00 | 0.00 | 0.00 | 53 | 1010.7 |
| 20260505093100 | 76 | 0 | 0.0 | 1.0 | 0.00 | 0.00 | 0.00 | 53 | 1010.3 |
| 20260505093033 | 75 | 190 | 0.0 | 1.0 | 0.00 | 0.00 | 0.00 | 53 | 1010.8 |
| 20260505092532 | 75 | 190 | 0.0 | 1.0 | 0.00 | 0.00 | 0.00 | 53 | 1010.8 |
| 20260505092031 | 76 | 190 | 0.0 | 1.0 | 0.00 | 0.00 | 0.00 | 53 | 1010.8 |
| 20260505091612 | 76 | 0 | 0.0 | 2.0 | 0.00 | 0.00 | 0.00 | 52 | 1010.2 |
| 20260505091531 | 76 | 190 | 0.0 | 1.0 | 0.00 | 0.00 | 0.00 | 53 | 1010.7 |
| 20260505091029 | 76 | 190 | 0.0 | 2.0 | 0.00 | 0.00 | 0.00 | 53 | 1010.5 |
| 20260505090529 | 76 | 190 | 0.0 | 3.0 | 0.00 | 0.00 | 0.00 | 52 | 1010.5 |
| 20260505090106 | 76 | 0 | 1.0 | 3.0 | 0.00 | 0.00 | 0.00 | 51 | 1010.1 |
| 20260505090039 | 76 | 190 | 1.0 | 3.0 | 0.00 | 0.00 | 0.00 | 52 | 1010.6 |
| 20260505085527 | 77 | 190 | 0.0 | 3.0 | 0.00 | 0.00 | 0.00 | 51 | 1010.5 |
| 20260505085027 | 77 | 190 | 0.0 | 3.0 | 0.00 | 0.00 | 0.00 | 51 | 1010.4 |
| 20260505084559 | 77 | 190 | 1.0 | 4.0 | 0.00 | 0.00 | 0.00 | 51 | 1009.9 |
| 20260505084528 | 77 | 190 | 1.0 | 4.0 | 0.00 | 0.00 | 0.00 | 51 | 1010.4 |
| 20260505084027 | 77 | 190 | 1.0 | 4.0 | 0.00 | 0.00 | 0.00 | 51 | 1010.4 |
| 20260505083522 | 78 | 190 | 1.0 | 4.0 | 0.00 | 0.00 | 0.00 | 50 | 1010.4 |
| 20260505083107 | 78 | 190 | 2.0 | 4.0 | 0.00 | 0.00 | 0.00 | 49 | 1010.0 |
| 20260505083021 | 78 | 190 | 1.0 | 4.0 | 0.00 | 0.00 | 0.00 | 49 | 1010.5 |
| 20260505082520 | 78 | 190 | 0.0 | 0.0 | 0.00 | 0.00 | 0.00 | 49 | 1010.3 |
| 20260505082020 | 79 | 190 | 0.0 | 0.0 | 0.00 | 0.00 | 0.00 | 49 | 1010.3 |
| 20260505081602 | 79 | 0 | 0.0 | 0.0 | 0.00 | 0.00 | 0.00 | 48 | 1009.9 |
| 20260505081519 | 79 | 190 | 0.0 | 0.0 | 0.00 | 0.00 | 0.00 | 49 | 1010.3 |
| 20260505081018 | 79 | 190 | 0.0 | 0.0 | 0.00 | 0.00 | 0.00 | 49 | 1010.4 |
| 20260505080517 | 79 | 190 | 0.0 | 0.0 | 0.00 | 0.00 | 0.00 | 48 | 1010.3 |
| 20260505080057 | 79 | 0 | 0.0 | 0.0 | 0.00 | 0.00 | 0.00 | 48 | 1009.9 |
| 20260505080020 | 79 | 190 | 0.0 | 0.0 | 0.00 | 0.00 | 0.00 | 48 | 1010.4 |
| 20260505075515 | 79 | 190 | 0.0 | 2.0 | 0.00 | 0.00 | 0.00 | 48 | 1010.4 |
| 20260505075015 | 80 | 190 | 0.0 | 2.0 | 0.00 | 0.00 | 0.00 | 47 | 1010.4 |
| 20260505074559 | 80 | 190 | 0.0 | 0.0 | 0.00 | 0.00 | 0.00 | 46 | 1010.1 |
| 20260505074514 | 80 | 190 | 0.0 | 0.0 | 0.00 | 0.00 | 0.00 | 47 | 1010.5 |
| 20260505074013 | 80 | 190 | 0.0 | 0.0 | 0.00 | 0.00 | 0.00 | 47 | 1010.5 |
| 20260505073512 | 81 | 190 | 0.0 | 3.0 | 0.00 | 0.00 | 0.00 | 46 | 1010.5 |
| 20260505073104 | 81 | 190 | 0.0 | 3.0 | 0.00 | 0.00 | 0.00 | 45 | 1010.2 |
| 20260505073022 | 81 | 190 | 0.0 | 3.0 | 0.00 | 0.00 | 0.00 | 46 | 1010.5 |
| 20260505072513 | 81 | 190 | 0.0 | 0.0 | 0.00 | 0.00 | 0.00 | 45 | 1010.5 |
| 20260505072009 | 81 | 190 | 0.0 | 0.0 | 0.00 | 0.00 | 0.00 | 45 | 1010.5 |
| 20260505071558 | 82 | 0 | 0.0 | 0.0 | 0.00 | 0.00 | 0.00 | 44 | 1010.2 |
| 20260505071516 | 82 | 190 | 0.0 | 0.0 | 0.00 | 0.00 | 0.00 | 45 | 1010.5 |
| 20260505071007 | 82 | 190 | 0.0 | 0.0 | 0.00 | 0.00 | 0.00 | 44 | 1010.5 |
| 20260505070510 | 82 | 190 | 0.0 | 0.0 | 0.00 | 0.00 | 0.00 | 44 | 1010.6 |
| 20260505070059 | 82 | 0 | 0.0 | 0.0 | 0.00 | 0.00 | 0.00 | 43 | 1010.3 |
| 20260505070005 | 82 | 190 | 0.0 | 0.0 | 0.00 | 0.00 | 0.00 | 43 | 1010.7 |
| 20260505065505 | 82 | 190 | 0.0 | 0.0 | 0.00 | 0.00 | 0.00 | 43 | 1010.7 |
| 20260505065005 | 82 | 190 | 0.0 | 0.0 | 0.00 | 0.00 | 0.00 | 43 | 1010.8 |
| 20260505064558 | 83 | 0 | 0.0 | 4.0 | 0.00 | 0.00 | 0.00 | 42 | 1010.4 |
| 20260505064516 | 83 | 190 | 0.0 | 2.0 | 0.00 | 0.00 | 0.00 | 43 | 1010.8 |
| 20260505064004 | 83 | 190 | 0.0 | 4.0 | 0.00 | 0.00 | 0.00 | 43 | 1010.8 |
| 20260505063504 | 83 | 190 | 1.0 | 4.0 | 0.00 | 0.00 | 0.00 | 42 | 1010.8 |
| 20260505063058 | 83 | 190 | 0.0 | 5.0 | 0.00 | 0.00 | 0.00 | 41 | 1010.3 |
| 20260505063005 | 83 | 190 | 0.0 | 5.0 | 0.00 | 0.00 | 0.00 | 42 | 1010.7 |
| 20260505062504 | 83 | 190 | 2.0 | 5.0 | 0.00 | 0.00 | 0.00 | 42 | 1010.7 |
| 20260505062003 | 83 | 190 | 0.0 | 4.0 | 0.00 | 0.00 | 0.00 | 42 | 1010.7 |
| 20260505061559 | 84 | 190 | 1.0 | 5.0 | 0.00 | 0.00 | 0.00 | 41 | 1010.3 |
| 20260505061507 | 84 | 190 | 0.0 | 4.0 | 0.00 | 0.00 | 0.00 | 41 | 1010.7 |
| 20260505061003 | 84 | 190 | 2.0 | 5.0 | 0.00 | 0.00 | 0.00 | 41 | 1010.6 |
| 20260505060513 | 84 | 190 | 1.0 | 5.0 | 0.00 | 0.00 | 0.00 | 41 | 1010.6 |
| 20260505060103 | 84 | 190 | 0.0 | 4.0 | 0.00 | 0.00 | 0.00 | 40 | 1010.3 |
| 20260505060003 | 84 | 190 | 0.0 | 4.0 | 0.00 | 0.00 | 0.00 | 41 | 1010.6 |
| 20260505055503 | 84 | 190 | 2.0 | 4.0 | 0.00 | 0.00 | 0.00 | 41 | 1010.6 |
| 20260505055003 | 84 | 190 | 1.0 | 3.0 | 0.00 | 0.00 | 0.00 | 41 | 1010.6 |
| 20260505054559 | 85 | 0 | 0.0 | 3.0 | 0.00 | 0.00 | 0.00 | 40 | 1010.3 |
| 20260505054504 | 85 | 190 | 0.0 | 3.0 | 0.00 | 0.00 | 0.00 | 40 | 1010.7 |
| 20260505054003 | 85 | 190 | 0.0 | 4.0 | 0.00 | 0.00 | 0.00 | 40 | 1010.5 |
| 20260505053504 | 85 | 190 | 1.0 | 4.0 | 0.00 | 0.00 | 0.00 | 40 | 1010.6 |
| 20260505053101 | 85 | 190 | 0.0 | 0.0 | 0.00 | 0.00 | 0.00 | 40 | 1010.3 |
| 20260505053002 | 84 | 190 | 0.0 | 0.0 | 0.00 | 0.00 | 0.00 | 40 | 1010.6 |
| 20260505052502 | 84 | 190 | 0.0 | 2.0 | 0.00 | 0.00 | 0.00 | 41 | 1010.6 |
| 20260505052002 | 84 | 190 | 0.0 | 2.0 | 0.00 | 0.00 | 0.00 | 42 | 1010.5 |
| 20260505051600 | 84 | 0 | 0.0 | 0.0 | 0.00 | 0.00 | 0.00 | 41 | 1010.2 |
| 20260505051503 | 84 | 190 | 0.0 | 0.0 | 0.00 | 0.00 | 0.00 | 41 | 1010.6 |
| 20260505051004 | 84 | 190 | 0.0 | 0.0 | 0.00 | 0.00 | 0.00 | 41 | 1010.5 |
| 20260505050501 | 84 | 190 | 0.0 | 0.0 | 0.00 | 0.00 | 0.00 | 41 | 1010.6 |
| 20260505041602 | 86 | 190 | 1.0 | 3.0 | 0.00 | 0.00 | 0.00 | 38 | 1009.8 |
| 20260505041600 | 87 | 190 | 1.0 | 3.0 | 0.00 | 0.00 | 0.00 | 38 | 1009.6 |
| 20260505041059 | 87 | 190 | 0.0 | 1.0 | 0.00 | 0.00 | 0.00 | 38 | 1009.8 |
| 20260505040559 | 87 | 190 | 0.0 | 0.0 | 0.00 | 0.00 | 0.00 | 37 | 1009.6 |
| 20260505040106 | 87 | 0 | 0.0 | 0.0 | 0.00 | 0.00 | 0.00 | 37 | 1009.3 |
| 20260505040059 | 87 | 190 | 0.0 | 0.0 | 0.00 | 0.00 | 0.00 | 37 | 1009.6 |
| 20260505035558 | 87 | 190 | 0.0 | 0.0 | 0.00 | 0.00 | 0.00 | 37 | 1009.6 |
| 20260505035058 | 88 | 190 | 0.0 | 0.0 | 0.00 | 0.00 | 0.00 | 37 | 1009.5 |
| 20260505034559 | 88 | 190 | 0.0 | 0.0 | 0.00 | 0.00 | 0.00 | 36 | 1009.3 |
| 20260505034557 | 88 | 0 | 0.0 | 0.0 | 0.00 | 0.00 | 0.00 | 36 | 1009.2 |
| 20260505034058 | 88 | 190 | 0.0 | 0.0 | 0.00 | 0.00 | 0.00 | 36 | 1009.2 |
| 20260505033558 | 88 | 190 | 0.0 | 0.0 | 0.00 | 0.00 | 0.00 | 36 | 1009.2 |
| 20260505033058 | 89 | 0 | 0.0 | 0.0 | 0.00 | 0.00 | 0.00 | 36 | 1009.0 |
| 20260505032556 | 88 | 190 | 0.0 | 2.0 | 0.00 | 0.00 | 0.00 | 36 | 1009.2 |
| 20260505032057 | 89 | 190 | 0.0 | 3.0 | 0.00 | 0.00 | 0.00 | 35 | 1009.2 |
| 20260505031610 | 89 | 190 | 0.0 | 0.0 | 0.00 | 0.00 | 0.00 | 35 | 1009.1 |
| 20260505031601 | 89 | 0 | 0.0 | 0.0 | 0.00 | 0.00 | 0.00 | 35 | 1009.0 |
| 20260505031057 | 89 | 190 | 0.0 | 2.0 | 0.00 | 0.00 | 0.00 | 35 | 1009.0 |
| 20260505030556 | 89 | 190 | 0.0 | 3.0 | 0.00 | 0.00 | 0.00 | 35 | 1008.9 |
| 20260505030056 | 89 | 190 | 0.0 | 4.0 | 0.00 | 0.00 | 0.00 | 34 | 1008.8 |
| 20260505025557 | 90 | 190 | 1.0 | 7.0 | 0.00 | 0.00 | 0.00 | 34 | 1008.7 |
| 20260505025056 | 90 | 190 | 0.0 | 7.0 | 0.00 | 0.00 | 0.00 | 34 | 1008.5 |
| 20260505024600 | 90 | 190 | 1.0 | 5.0 | 0.00 | 0.00 | 0.00 | 34 | 1008.3 |
| 20260505024557 | 90 | 190 | 1.0 | 5.0 | 0.00 | 0.00 | 0.00 | 33 | 1008.2 |
| 20260505024059 | 90 | 190 | 0.0 | 5.0 | 0.00 | 0.00 | 0.00 | 33 | 1008.2 |
| 20260505023557 | 91 | 190 | 1.0 | 10.0 | 0.00 | 0.00 | 0.00 | 33 | 1008.1 |
| 20260505023116 | 91 | 190 | 2.0 | 10.0 | 0.00 | 0.00 | 0.00 | 32 | 1008.0 |
| 20260505023059 | 91 | 0 | 4.0 | 10.0 | 0.00 | 0.00 | 0.00 | 32 | 1007.8 |
| 20260505022555 | 91 | 190 | 0.0 | 6.0 | 0.00 | 0.00 | 0.00 | 32 | 1008.0 |
| 20260505022055 | 91 | 190 | 3.0 | 6.0 | 0.00 | 0.00 | 0.00 | 32 | 1007.9 |
| 20260505021600 | 92 | 0 | 0.0 | 9.0 | 0.00 | 0.00 | 0.00 | 31 | 1007.6 |
| 20260505021555 | 92 | 190 | 0.0 | 9.0 | 0.00 | 0.00 | 0.00 | 31 | 1007.8 |
| 20260505021054 | 92 | 190 | 4.0 | 9.0 | 0.00 | 0.00 | 0.00 | 31 | 1007.7 |
| 20260505020557 | 92 | 190 | 3.0 | 6.0 | 0.00 | 0.00 | 0.00 | 29 | 1007.6 |
| 20260505020055 | 93 | 190 | 1.0 | 6.0 | 0.00 | 0.00 | 0.00 | 27 | 1007.6 |
| 20260505015554 | 93 | 190 | 2.0 | 6.0 | 0.00 | 0.00 | 0.00 | 27 | 1007.6 |
| 20260505015056 | 93 | 190 | 1.0 | 6.0 | 0.00 | 0.00 | 0.00 | 26 | 1007.3 |
| 20260505014608 | 93 | 0 | 3.0 | 7.0 | 0.00 | 0.00 | 0.00 | 26 | 1007.1 |
| 20260505014604 | 93 | 190 | 1.0 | 7.0 | 0.00 | 0.00 | 0.00 | 26 | 1007.2 |
| 20260505014053 | 94 | 190 | 2.0 | 7.0 | 0.00 | 0.00 | 0.00 | 26 | 1007.2 |
| 20260505013553 | 94 | 190 | 3.0 | 6.0 | 0.00 | 0.00 | 0.00 | 26 | 1007.2 |
| 20260505013107 | 94 | 190 | 1.0 | 8.0 | 0.00 | 0.00 | 0.00 | 26 | 1007.0 |
| 20260505013100 | 94 | 190 | 2.0 | 10.0 | 0.00 | 0.00 | 0.00 | 25 | 1006.8 |